Home > Weather > Bambari > Past weeks

Flag for Central African Republic Past Weather in Bambari, Central African Republic — Yesterday and Last 2 Weeks

Now
72 °F

Passing clouds.


Feels Like: 65 °F
Forecast: 70 / 88 °F
Wind: No wind

Location: Bangui Airport

Current Time: Jun 29, 2016 at 6:42:13 AM

Latest Report: Jun 29, 2016 at 6:00 AM


Visibility: N/A

Pressure: 29.98 "Hg

Humidity: 100%

Dew Point: 72 °F

Location of BambariLocation

Past Weather in Bambari — Graph

°F

Bambari Temperature Yesterday

Maximum temperature yesterday: 90 °F (at 1:00 PM)
Minimum temperature yesterday: 72 °F (at 4:00 AM)
Average temperature yesterday: 79 °F

High & Low Weather Summary for the Past Weeks

 TemperatureHumidityPressure
High91 °F (Jun 18, 4:00 PM)100% (Jun 14, 5:00 AM)30.07 "Hg (Jun 14, 5:00 AM)
Low70 °F (Jun 15, 8:00 AM)49% (Jun 22, 3:00 PM)29.77 "Hg (Jun 24, 4:00 PM)
Average77 °F87%29.95 "Hg
* Reported Jun 14 5:00 AM — Jun 29 5:00 AM, Bambari, Weather by CustomWeather, © 2016

Note: Actual official high and low records may vary slightly from our data, if they occured in-between our weather recording intervals... More about our weather records

Advertising

Bambari Weather History for the Previous 24 Hours

Scroll right to see more
 ConditionsComfort  
Time TempWeatherWind HumidityBarometerVisibility
5:00 AM
Wed, Jun 29
72 °FPassing clouds.No wind100%29.95 "HgN/A
4:00 AM72 °FPassing clouds.2 mph100%29.95 "HgN/A
3:00 AM72 °FPassing clouds.3 mph100%29.92 "HgN/A
2:00 AM73 °FPassing clouds.2 mph94%29.92 "HgN/A
1:00 AM73 °FClear.No wind100%29.95 "Hg10 mi
12:00 AM73 °FClear.2 mph100%29.95 "Hg10 mi
11:00 PM
Tue, Jun 28
75 °FClear.No wind94%29.98 "Hg5 mi
10:00 PM73 °FPassing clouds.1 mph100%29.98 "Hg5 mi
9:00 PM73 °FThunderstorms. Passing clouds.7 mph100%29.98 "Hg5 mi
8:00 PM73 °FThunderstorms. Passing clouds.5 mph100%29.98 "Hg5 mi
7:00 PM77 °FThunderstorms. Passing clouds.2 mph83%29.95 "Hg5 mi
6:00 PM79 °FThunderstorms. Passing clouds.8 mph84%29.89 "Hg5 mi
5:00 PM77 °FLight rain. Scattered clouds.3 mph83%29.89 "Hg4 mi
4:00 PM90 °FScattered clouds.3 mph55%29.86 "HgN/A
3:00 PM90 °FScattered clouds.6 mph59%29.86 "HgN/A
2:00 PM88 °FScattered clouds.No wind62%29.92 "HgN/A
1:00 PM90 °FScattered clouds.3 mph55%29.95 "HgN/A
12:00 PM88 °FPassing clouds.2 mph59%29.95 "HgN/A
11:00 AM86 °FPassing clouds.5 mph62%29.98 "HgN/A
10:00 AM82 °FSunny.3 mph70%29.98 "Hg10 mi
9:00 AM81 °FPassing clouds.3 mph74%30.01 "HgN/A
8:00 AM77 °FPassing clouds.2 mph79%30.01 "HgN/A
7:00 AM73 °FPassing clouds.3 mph94%30.01 "Hg5 mi
6:00 AM72 °FPassing clouds.2 mph94%29.98 "Hg5 mi
Weather by CustomWeather, © 2016

See weather overviewHow to use our weather pages